Regional Weather Roundup
Issued by NWS

Home | Current Version | Previous Version | Text Only | Print | Product List | Glossary Off
Versions: 1 2 3 4 5 6 7 8 9 10 11 12 13 14 15 16 17 18 19 20 21 22 23 24 25 26 27 28 29 30 31 32 33 34 35 36 37 38 39 40 41 42 43 44 45 46 47 48 49 50

000
ASUS43 KLMK 231602
RWRKY
KENTUCKY REGIONAL WEATHER ROUNDUP
NATIONAL WEATHER SERVICE LOUISVILLE KY
1200 PM EDT SUN JUL 23 2017

NOTE "FAIR" INDICATES FEW OR NO CLOUDS BELOW 12,000 FEET
WITH NO SIGNIFICANT WEATHER AND/OR OBSTRUCTIONS TO VISIBILITY.

KYZ001>023-026-027-061>063-070>075-231700-
WESTERN AND SOUTH CENTRAL KENTUCKY

CITY           SKY/WX    TMP DP  RH WIND       PRES   REMARKS
PADUCAH        SUNNY     86  69  56 SE13      29.88F HX  90
HENDERSON      MOSUNNY   80  72  76 E7        29.93R
OWENSBORO      CLOUDY    79  71  76 VRB3      29.92R
HOPKINSVILLE   PTSUNNY   87  73  64 E5        29.91S HX  94
BOWLING GREEN  PTSUNNY   81  72  74 E8        29.94S
GLASGOW        NOT AVBL
$$

KYZ024-025-028>034-038-045-046-053-231700-
NORTH CENTRAL KENTUCKY

CITY           SKY/WX    TMP DP  RH WIND       PRES   REMARKS
LOUISVILLE/SDF CLOUDY    75  71  87 SE9       29.86F
LOUISVILLE/LOU PTSUNNY   75  73  93 SE8       29.87F
FORT KNOX      CLOUDY    73  71  92 SE9       29.88F
$$

KYZ035>037-039>044-047>052-055>060-089>105-231700-
NORTHEAST KENTUCKY

CITY           SKY/WX    TMP DP  RH WIND       PRES   REMARKS
LEXINGTON      LGT RAIN  71  67  87 CALM      29.91F
COVINGTON      LGT RAIN  72  71  97 W15       29.89F
FRANKFORT      CLOUDY    72  68  87 CALM      29.89F
$$

KYZ054-064>069-076>088-106>120-231700-
SOUTHEAST KENTUCKY

CITY           SKY/WX    TMP DP  RH WIND       PRES   REMARKS
JACKSON        CLOUDY    78  69  73 W14G24    29.95R
LONDON         PTSUNNY   81  68  64 NW12      29.98R
SOMERSET       CLOUDY    77  64  65 N7        29.98F
MIDDLESBORO    CLOUDY    87  71  58 SW5       29.96R HX  93
MONTICELLO     CLOUDY    78  69  73 N21G29    30.00R THUNDER
$$




USA.gov is the U.S. government's official web portal to all federal, state and local government web resources and services.